Home   Weather   Nuremberg   Past weeks
Flag for Germany

Past Weather in Nuremberg, Bavaria, Germany — Yesterday and Last 2 Weeks

Now
48 °F

Clear.


Feels Like: 46 °F
Forecast: 70 / 41 °F
Wind: 5 mph from East

Location: Nuernberg

Current Time: Sep 20, 2019 at 10:38:56 pm

Latest Report: Sep 20, 2019 at 9:50 pm


Visibility: 10 mi

Pressure: 30.30 "Hg

Humidity: 66%

Dew Point: 37 °F

Location of NurembergLocation

Past Weather in Nuremberg — Graph

°F

Nuremberg Temperature Yesterday

Maximum temperature yesterday: 61 °F (at 4:20 pm)
Minimum temperature yesterday: 34 °F (at 6:20 am)
Average temperature yesterday: 47 °F

High & Low Weather Summary for the Past Weeks

 TemperatureHumidityPressure
High81 °F (Sep 15, 2:20 pm)100% (Sep 8, 3:20 am)30.51 "Hg (Sep 8, 3:20 am)
Low32 °F (Sep 20, 6:50 am)29% (Sep 16, 4:50 pm)29.92 "Hg (Sep 9, 4:20 am)
Average57 °F72%30.22 "Hg
* Reported Sep 5 9:20 pm — Sep 20 9:20 pm, Nuremberg. Weather by CustomWeather, © 2019

Note: Actual official high and low records may vary slightly from our data, if they occured in-between our weather recording intervals... More about our weather records

Advertising

Nuremberg Weather History for the Previous 24 Hours

Scroll right to see more
 ConditionsComfort  
Time TempWeatherWind HumidityBarometerVisibility
9:20 pm
Fri, Sep 20
50 °FClear.6 mph62%30.30 "Hg10 mi
8:50 pm50 °FClear.2 mph62%30.30 "Hg10 mi
8:20 pm52 °FClear.2 mph62%30.30 "Hg10 mi
7:50 pm57 °FClear.3 mph44%30.30 "Hg10 mi
7:20 pm59 °FClear.6 mph42%30.30 "Hg10 mi
6:50 pm61 °FSunny.5 mph39%30.30 "Hg10 mi
6:20 pm63 °FPassing clouds.3 mph39%30.30 "HgN/A
5:50 pm64 °FSunny.2 mph34%30.30 "Hg10 mi
5:20 pm64 °FPassing clouds.5 mph34%30.30 "HgN/A
4:50 pm64 °FSunny.3 mph34%30.33 "Hg10 mi
4:20 pm64 °FPassing clouds.6 mph34%30.33 "HgN/A
3:50 pm63 °FPassing clouds.5 mph37%30.33 "HgN/A
3:20 pm63 °FPassing clouds.6 mph34%30.33 "HgN/A
2:50 pm63 °FSunny.7 mph39%30.36 "Hg10 mi
2:20 pm63 °FSunny.6 mph37%30.36 "Hg10 mi
1:50 pm63 °FSunny.6 mph37%30.36 "Hg10 mi
1:20 pm61 °FSunny.5 mph39%30.36 "Hg10 mi
12:50 pm61 °FPassing clouds.3 mph42%30.39 "HgN/A
12:20 pm61 °FPassing clouds.5 mph42%30.39 "HgN/A
11:50 am59 °FPassing clouds.5 mph42%30.39 "HgN/A
11:20 am57 °FPassing clouds.3 mph51%30.39 "HgN/A
10:50 am54 °FPassing clouds.2 mph58%30.39 "HgN/A
9:50 am48 °FSunny.2 mph66%30.42 "Hg10 mi
9:20 am46 °FSunny.1 mph71%30.42 "Hg10 mi
8:50 am43 °FSunny.1 mph81%30.39 "Hg10 mi
8:20 am37 °FSunny.1 mph87%30.39 "Hg10 mi
7:50 am34 °FSunny.No wind93%30.39 "Hg10 mi
7:20 am32 °FSunny.1 mph100%30.39 "Hg10 mi
6:50 am32 °FClear.2 mph93%30.39 "Hg10 mi
5:50 am34 °FClear.1 mph93%30.39 "Hg10 mi
5:20 am34 °FClear.1 mph93%30.39 "Hg10 mi
4:50 am34 °FClear.1 mph100%30.39 "Hg10 mi
4:20 am34 °FClear.2 mph93%30.39 "Hg10 mi
3:50 am36 °FClear.1 mph87%30.39 "Hg10 mi
3:20 am36 °FClear.1 mph93%30.39 "Hg10 mi
2:50 am37 °FClear.2 mph87%30.39 "Hg10 mi
2:20 am37 °FClear.2 mph87%30.39 "Hg10 mi
1:50 am37 °FClear.1 mph87%30.39 "Hg10 mi
1:20 am39 °FClear.1 mph81%30.39 "Hg10 mi
12:50 am39 °FClear.1 mph87%30.39 "Hg10 mi
12:20 am39 °FClear.1 mph87%30.42 "Hg10 mi
11:50 pm
Thu, Sep 19
41 °FClear.1 mph81%30.39 "Hg10 mi
11:20 pm43 °FPassing clouds.3 mph71%30.42 "HgN/A
10:50 pm43 °FPassing clouds.3 mph76%30.39 "HgN/A
10:20 pm45 °FPassing clouds.3 mph66%30.39 "HgN/A
Weather by CustomWeather, © 2019

See weather overview